Station Historical Data
Daily Summary for July 8, 2017 Units:  English    Metric   Both
« Previous Day
Next Day »
Daily Weekly Monthly Yearly Custom
  High: Low: Average:
Temperature: 89.2 °F 70.1 °F 76.8 °F
Dew Point: 74.4 °F 67.8 °F 70.3 °F
Humidity: 95% 56% 82%
Wind Speed: 5.1mph 0.0mph 1.7mph
Wind Gust: 5.1mph - -
Wind- - South
Pressure: 30.04 in 29.94 in -
Precipitation: 0.00 in    
Historical Graphs
 
 
Tabular Data for July 8, 2017
Time Temperature Dew Point Pressure Wind Wind Speed Wind Gust Humidity Rainfall Rate (Hourly) Conditions
00:01 71.4 °F 68.3 °F 29.98 in NNW 1.2 mph   90% 0.00 in SCT
00:06 71.4 °F 68.3 °F 29.97 in NNW 1.2 mph   90% 0.00 in SCT
00:11 71.4 °F 68.3 °F 29.97 in NNW 1.2 mph 1.2 mph 90% 0.00 in SCT
00:16 71.4 °F 68.3 °F 29.97 in NNW 1.2 mph   90% 0.00 in SCT
00:21 71.5 °F 68.4 °F 29.97 in West 1.2 mph 1.2 mph 90% 0.00 in SCT
00:26 71.5 °F 68.4 °F 29.96 in West 1.2 mph 1.2 mph 90% 0.00 in SCT
00:31 71.6 °F 68.5 °F 29.97 in West 1.2 mph   90% 0.00 in CLR
00:32 71.6 °F 68.5 °F 29.97 in West 1.2 mph 1.2 mph 90% 0.00 in CLR
00:37 71.7 °F 68.6 °F 29.97 in WNW 1.2 mph   90% 0.00 in CLR
00:42 71.6 °F 68.5 °F 29.97 in WNW 1.2 mph   90% 0.00 in CLR
00:47 71.6 °F 68.5 °F 29.97 in WNW 1.2 mph   90% 0.00 in CLR
00:52 71.5 °F 68.4 °F 29.97 in WNW 1.2 mph   90% 0.00 in CLR
00:58 71.4 °F 68.3 °F 29.98 in WNW 1.2 mph   90% 0.00 in CLR
01:03 71.4 °F 68.3 °F 29.97 in WNW 1.2 mph   90% 0.00 in CLR
01:08 71.3 °F 68.2 °F 29.98 in WNW 1.2 mph   90% 0.00 in CLR
01:13 71.2 °F 68.1 °F 29.98 in WNW 1.2 mph   90% 0.00 in CLR
01:18 71.2 °F 68.4 °F 29.99 in WNW 1.2 mph   91% 0.00 in CLR
01:23 71.2 °F 68.4 °F 29.99 in WNW 1.2 mph   91% 0.00 in CLR
01:28 71.1 °F 68.3 °F 29.99 in WNW 1.2 mph   91% 0.00 in CLR
01:33 71.1 °F 68.3 °F 29.99 in WNW 1.2 mph   91% 0.00 in CLR
01:38 71.1 °F 68.3 °F 29.99 in WNW 1.2 mph   91% 0.00 in CLR
01:43 71.0 °F 68.2 °F 29.99 in WNW 1.2 mph   91% 0.00 in CLR
01:48 70.9 °F 68.1 °F 30.00 in WNW 1.2 mph   91% 0.00 in CLR
01:53 70.9 °F 68.1 °F 29.99 in WNW 1.2 mph   91% 0.00 in CLR
01:58 70.8 °F 68.4 °F 29.99 in WNW 1.2 mph   92% 0.00 in CLR
02:03 70.8 °F 68.4 °F 29.99 in WNW 1.2 mph   92% 0.00 in CLR
02:08 70.7 °F 68.3 °F 29.99 in WNW 1.2 mph   92% 0.00 in CLR
02:13 70.7 °F 68.3 °F 29.99 in WNW 1.2 mph   92% 0.00 in CLR
02:19 70.7 °F 68.3 °F 30.00 in WNW 1.2 mph   92% 0.00 in CLR
02:24 70.7 °F 68.3 °F 30.00 in WNW 1.2 mph   92% 0.00 in CLR
02:29 70.7 °F 68.3 °F 30.00 in WNW 1.2 mph   92% 0.00 in CLR
02:34 70.7 °F 68.3 °F 30.00 in WNW 1.2 mph   92% 0.00 in CLR
02:39 70.8 °F 68.4 °F 30.00 in WNW 1.2 mph   92% 0.00 in CLR
02:44 70.9 °F 68.5 °F 30.00 in WNW 1.2 mph   92% 0.00 in CLR
02:49 71.0 °F 68.6 °F 30.00 in WNW 1.2 mph   92% 0.00 in CLR
02:54 71.0 °F 68.6 °F 30.00 in WNW 1.2 mph   92% 0.00 in CLR
02:59 71.1 °F 68.7 °F 30.00 in WNW 1.2 mph   92% 0.00 in CLR
03:04 71.1 °F 68.7 °F 30.00 in WNW 1.2 mph   92% 0.00 in BKN
03:09 71.1 °F 68.7 °F 30.00 in WNW 1.2 mph   92% 0.00 in BKN
03:14 71.1 °F 68.7 °F 30.00 in WNW 1.2 mph   92% 0.00 in BKN
03:19 70.1 °F 68.6 °F 30.00 in WNW 1.2 mph   95% 0.00 in BKN
03:24 70.1 °F 68.6 °F 30.00 in WNW 1.2 mph   95% 0.00 in BKN
03:29 70.1 °F 68.6 °F 30.01 in NNE 1.2 mph   95% 0.00 in BKN
03:34 70.1 °F 68.6 °F 30.01 in North 1.2 mph   95% 0.00 in SCT
03:40 70.1 °F 68.6 °F 30.01 in North 1.2 mph   95% 0.00 in SCT
03:45 70.1 °F 68.6 °F 30.00 in North 1.2 mph   95% 0.00 in SCT
03:50 70.1 °F 68.6 °F 30.01 in Calm     95% 0.00 in SCT
03:55 70.1 °F 68.6 °F 30.01 in North 1.2 mph   95% 0.00 in SCT
04:00 70.1 °F 68.6 °F 30.01 in Calm     95% 0.00 in SCT
04:05 70.1 °F 68.6 °F 30.01 in Calm     95% 0.00 in SCT
04:10 70.1 °F 68.6 °F 30.01 in North 1.2 mph   95% 0.00 in SCT
04:15 70.1 °F 68.6 °F 30.01 in North 1.2 mph   95% 0.00 in SCT
04:20 70.1 °F 68.6 °F 30.01 in North 1.2 mph   95% 0.00 in BKN
04:25 70.1 °F 68.6 °F 30.01 in North 1.2 mph   95% 0.00 in BKN
04:31 70.1 °F 68.6 °F 30.01 in North 1.2 mph   95% 0.00 in BKN
04:36 70.1 °F 68.6 °F 30.01 in North 1.2 mph   95% 0.00 in BKN
04:41 70.1 °F 68.6 °F 30.01 in North 1.2 mph   95% 0.00 in BKN
04:46 70.1 °F 68.6 °F 30.01 in North 1.2 mph   95% 0.00 in BKN
04:51 70.1 °F 68.6 °F 30.01 in North 1.2 mph   95% 0.00 in SCT
04:56 70.1 °F 68.6 °F 30.01 in North 1.2 mph   95% 0.00 in SCT
05:01 70.1 °F 68.6 °F 30.01 in North 1.2 mph   95% 0.00 in SCT
05:06 70.1 °F 68.6 °F 30.01 in North 1.2 mph   95% 0.00 in SCT
05:11 70.1 °F 68.6 °F 30.01 in North 1.2 mph   95% 0.00 in SCT
05:15 70.1 °F 68.6 °F 30.01 in Calm     95% 0.00 in SCT
05:20 70.1 °F 68.6 °F 30.01 in North 1.2 mph   95% 0.00 in SCT
05:25 70.1 °F 68.6 °F 30.01 in Calm     95% 0.00 in SCT
05:30 70.1 °F 68.6 °F 30.01 in Calm     95% 0.00 in FEW
05:35 70.1 °F 68.6 °F 30.00 in Calm     95% 0.00 in FEW
05:40 70.1 °F 68.6 °F 30.01 in Calm     95% 0.00 in FEW
05:45 70.1 °F 68.6 °F 30.01 in Calm     95% 0.00 in FEW
05:50 70.1 °F 68.6 °F 30.01 in Calm     95% 0.00 in FEW
05:55 70.1 °F 68.6 °F 30.01 in Calm     95% 0.00 in FEW
06:00 70.1 °F 68.6 °F 30.01 in North 1.2 mph   95% 0.00 in FEW
06:05 70.1 °F 68.6 °F 30.02 in Calm     95% 0.00 in FEW
06:10 70.1 °F 68.6 °F 30.01 in Calm     95% 0.00 in FEW
06:15 70.1 °F 68.6 °F 30.02 in North 1.2 mph   95% 0.00 in FEW
06:20 70.1 °F 68.6 °F 30.02 in North 1.2 mph   95% 0.00 in FEW
06:25 70.1 °F 68.6 °F 30.02 in Calm     95% 0.00 in FEW
06:30 70.1 °F 68.6 °F 30.03 in Calm     95% 0.00 in CLR
06:35 70.1 °F 68.6 °F 30.04 in Calm     95% 0.00 in CLR
06:40 70.1 °F 68.6 °F 30.04 in Calm     95% 0.00 in CLR
06:45 70.1 °F 68.6 °F 30.04 in Calm     95% 0.00 in CLR
06:50 70.1 °F 68.6 °F 30.04 in North 1.2 mph   95% 0.00 in CLR
06:55 70.1 °F 68.6 °F 30.04 in Calm     95% 0.00 in CLR
07:00 70.1 °F 68.6 °F 30.04 in Calm     95% 0.00 in CLR
07:05 70.1 °F 68.6 °F 30.03 in Calm     95% 0.00 in CLR
07:10 70.1 °F 68.6 °F 30.03 in Calm     95% 0.00 in CLR
07:15 70.1 °F 68.6 °F 30.03 in Calm     95% 0.00 in CLR
07:20 70.1 °F 68.6 °F 30.03 in North 1.2 mph   95% 0.00 in CLR
07:25 70.1 °F 68.6 °F 30.03 in Calm     95% 0.00 in BKN
07:30 70.1 °F 68.6 °F 30.03 in Calm     95% 0.00 in BKN
07:35 70.1 °F 68.6 °F 30.03 in Calm     95% 0.00 in BKN
07:40 70.1 °F 68.6 °F 30.03 in Calm     95% 0.00 in BKN
07:45 70.1 °F 68.6 °F 30.03 in North 1.2 mph   95% 0.00 in BKN
07:50 70.1 °F 68.6 °F 30.03 in Calm     95% 0.00 in SCT
07:55 70.1 °F 68.6 °F 30.03 in Calm     95% 0.00 in SCT
08:00 70.1 °F 68.6 °F 30.03 in North 1.2 mph   95% 0.00 in SCT
08:05 70.1 °F 68.6 °F 30.03 in Calm     95% 0.00 in SCT
08:10 70.1 °F 68.6 °F 30.03 in Calm     95% 0.00 in SCT
08:15 72.4 °F 69.9 °F 30.03 in WNW 1.2 mph   92% 0.00 in SCT
08:20 72.6 °F 69.8 °F 30.03 in WNW 1.2 mph 1.2 mph 91% 0.00 in SCT
08:25 72.8 °F 69.7 °F 30.03 in WNW 1.2 mph 1.2 mph 90% 0.00 in SCT
08:30 73.0 °F 69.9 °F 30.03 in SW 2.3 mph   90% 0.00 in SCT
08:35 73.3 °F 70.2 °F 30.02 in SW 2.3 mph   90% 0.00 in SCT
08:40 73.6 °F 70.5 °F 30.02 in SW 2.3 mph   90% 0.00 in SCT
08:45 73.9 °F 70.8 °F 30.02 in SW 2.3 mph   90% 0.00 in SCT
08:50 74.1 °F 70.6 °F 30.02 in SW 2.3 mph 2.3 mph 89% 0.00 in SCT
08:55 74.5 °F 71.0 °F 30.02 in WNW 2.3 mph   89% 0.00 in SCT
09:00 75.0 °F 71.5 °F 30.02 in NW 2.3 mph   89% 0.00 in SCT
09:06 75.4 °F 71.6 °F 30.01 in NW 2.3 mph   88% 0.00 in SCT
09:11 75.7 °F 71.6 °F 30.01 in NW 2.3 mph   87% 0.00 in SCT
09:16 76.0 °F 71.8 °F 30.02 in NW 2.3 mph 2.3 mph 87% 0.00 in SCT
09:21 76.5 °F 72.3 °F 30.02 in NW 2.3 mph 2.3 mph 87% 0.00 in SCT
09:26 76.9 °F 72.7 °F 30.02 in NW 2.3 mph   87% 0.00 in SCT
09:31 77.3 °F 72.8 °F 30.02 in NW 2.3 mph   86% 0.00 in SCT
09:36 77.5 °F 72.6 °F 30.02 in NW 2.3 mph   85% 0.00 in SCT
09:41 77.6 °F 72.4 °F 30.02 in NW 2.3 mph   84% 0.00 in SCT
09:46 77.7 °F 72.8 °F 30.02 in NW 2.3 mph   85% 0.00 in SCT
09:51 77.7 °F 72.8 °F 30.02 in NW 2.3 mph   85% 0.00 in SCT
09:56 77.8 °F 72.9 °F 30.02 in NW 2.3 mph 2.3 mph 85% 0.00 in SCT
10:01 77.9 °F 73.0 °F 30.02 in SW 2.3 mph   85% 0.00 in SCT
10:06 78.0 °F 72.8 °F 30.02 in WSW 2.3 mph   84% 0.00 in SCT
10:11 78.3 °F 73.1 °F 30.02 in WSW 2.3 mph   84% 0.00 in SCT
10:16 79.1 °F 73.8 °F 30.02 in West 2.3 mph   84% 0.00 in SCT
10:20 84.3 °F 72.6 °F 29.95 in Calm   1.0 mph 68% 0.00 in
10:22 79.9 °F 73.9 °F 30.01 in West 2.3 mph   82% 0.00 in BKN
10:25 84.3 °F 73.0 °F 29.94 in Calm   1.0 mph 69% 0.00 in
10:26 80.4 °F 73.7 °F 30.02 in NW 2.3 mph   80% 0.00 in BKN
10:30 84.2 °F 72.9 °F 29.95 in Calm   1.0 mph 69% 0.00 in
10:32 81.0 °F 74.2 °F 30.02 in NW 2.3 mph   80% 0.00 in BKN
10:35 83.6 °F 70.1 °F 29.95 in WNW 1.0 mph 2.0 mph 64% 0.00 in
10:37 81.5 °F 74.4 °F 30.02 in WSW 2.3 mph   79% 0.00 in BKN
10:40 82.3 °F 69.8 °F 29.96 in NW 1.0 mph 2.0 mph 66% 0.00 in
10:42 81.8 °F 73.9 °F 30.02 in SW 2.3 mph 2.3 mph 77% 0.00 in BKN
10:45 81.0 °F 69.9 °F 29.96 in Calm   3.0 mph 69% 0.00 in
10:47 81.8 °F 73.1 °F 30.02 in SSW 3.5 mph 3.5 mph 75% 0.00 in BKN
10:50 80.2 °F 69.9 °F 29.96 in Calm     71% 0.00 in
10:52 81.7 °F 73.8 °F 30.02 in SSE 3.5 mph   77% 0.00 in BKN
10:55 79.4 °F 70.0 °F 29.97 in Calm     73% 0.00 in
10:57 81.9 °F 73.6 °F 30.02 in WSW 3.5 mph 3.5 mph 76% 0.00 in BKN
11:00 78.9 °F 69.9 °F 29.98 in Calm     74% 0.00 in
11:02 81.9 °F 73.6 °F 30.02 in SW 3.5 mph 3.5 mph 76% 0.00 in BKN
11:05 78.4 °F 69.8 °F 29.98 in Calm     75% 0.00 in
11:07 82.1 °F 73.4 °F 30.02 in SSW 3.5 mph 3.5 mph 75% 0.00 in BKN
11:10 78.1 °F 70.3 °F 29.98 in Calm     77% 0.00 in
11:12 82.5 °F 74.2 °F 30.02 in SSW 3.5 mph 3.5 mph 76% 0.00 in BKN
11:15 77.9 °F 70.5 °F 29.98 in Calm     78% 0.00 in
11:17 82.7 °F 73.6 °F 30.02 in SSW 3.5 mph   74% 0.00 in BKN
11:20 77.7 °F 70.7 °F 29.98 in Calm     79% 0.00 in
11:22 83.0 °F 73.9 °F 30.02 in East 3.5 mph 3.5 mph 74% 0.00 in BKN
11:25 77.3 °F 70.6 °F 29.98 in Calm     80% 0.00 in
11:27 82.9 °F 72.9 °F 30.02 in SW 3.5 mph   72% 0.00 in BKN
11:30 77.1 °F 70.5 °F 29.99 in Calm     80% 0.00 in
11:32 83.0 °F 72.6 °F 30.02 in SW 3.5 mph 3.5 mph 71% 0.00 in BKN
11:35 77.0 °F 69.6 °F 29.98 in Calm     78% 0.00 in
11:37 83.1 °F 73.5 °F 30.02 in WSW 3.5 mph   73% 0.00 in BKN
11:40 76.9 °F 68.8 °F 29.98 in Calm     76% 0.00 in
11:43 83.5 °F 73.5 °F 30.02 in WSW 3.5 mph   72% 0.00 in BKN
11:45 76.9 °F 68.4 °F 29.98 in Calm     75% 0.00 in
11:48 83.9 °F 73.9 °F 30.02 in NW 3.5 mph   72% 0.00 in BKN
11:50 76.8 °F 68.3 °F 29.98 in Calm     75% 0.00 in
11:53 84.1 °F 74.1 °F 30.02 in North 3.5 mph   72% 0.00 in BKN
11:55 76.7 °F 67.8 °F 29.99 in Calm     74% 0.00 in
11:58 84.0 °F 73.2 °F 30.02 in SW 3.5 mph   70% 0.00 in BKN
12:00 76.6 °F 68.8 °F 29.99 in Calm     77% 0.00 in
12:03 83.9 °F 72.2 °F 30.02 in SSW 3.5 mph 3.5 mph 68% 0.00 in BKN
12:05 76.2 °F 69.2 °F 29.99 in Calm     79% 0.00 in
12:08 83.8 °F 73.0 °F 30.02 in West 3.5 mph   70% 0.00 in BKN
12:10 75.4 °F 68.8 °F 29.99 in Calm     80% 0.00 in
12:13 83.9 °F 73.1 °F 30.02 in WNW 3.5 mph   70% 0.00 in BKN
12:15 74.8 °F 68.9 °F 30.00 in Calm     82% 0.00 in
12:18 84.0 °F 74.0 °F 30.01 in WNW 3.5 mph   72% 0.00 in BKN
12:20 74.1 °F 69.0 °F 30.00 in Calm     84% 0.00 in
12:23 84.5 °F 73.6 °F 30.01 in WNW 3.5 mph   70% 0.00 in BKN
12:28 85.1 °F 73.8 °F 30.01 in NW 3.5 mph   69% 0.00 in BKN
12:33 85.3 °F 73.5 °F 30.01 in NNW 3.5 mph   68% 0.00 in BKN
12:38 85.2 °F 71.2 °F 30.01 in ENE 3.5 mph 3.5 mph 63% 0.00 in BKN
12:43 85.5 °F 73.7 °F 30.01 in ENE 3.5 mph 3.5 mph 68% 0.00 in BKN
12:49 85.9 °F 73.2 °F 30.00 in South 3.5 mph   66% 0.00 in BKN
12:54 86.6 °F 73.0 °F 30.00 in South 3.5 mph   64% 0.00 in BKN
12:59 87.2 °F 73.5 °F 30.00 in SW 3.5 mph 3.5 mph 64% 0.00 in BKN
13:04 87.4 °F 73.7 °F 30.00 in East 3.5 mph   64% 0.00 in BKN
13:09 87.6 °F 72.0 °F 30.00 in East 3.5 mph   60% 0.00 in BKN
13:14 88.1 °F 73.0 °F 30.00 in ENE 3.5 mph   61% 0.00 in BKN
13:19 88.6 °F 72.4 °F 30.00 in NNW 3.5 mph   59% 0.00 in BKN
13:24 89.0 °F 72.3 °F 30.00 in SW 3.5 mph   58% 0.00 in BKN
13:29 88.4 °F 72.2 °F 30.00 in NW 3.5 mph   59% 0.00 in BKN
13:34 87.7 °F 72.6 °F 30.00 in North 3.5 mph   61% 0.00 in BKN
13:39 87.8 °F 74.1 °F 30.00 in NNE 3.5 mph 3.5 mph 64% 0.00 in BKN
13:44 88.3 °F 72.7 °F 29.99 in NNE 3.5 mph   60% 0.00 in BKN
13:49 88.6 °F 73.9 °F 29.99 in WNW 3.5 mph 3.5 mph 62% 0.00 in BKN
13:54 88.8 °F 72.6 °F 29.99 in WNW 3.5 mph 3.5 mph 59% 0.00 in BKN
13:59 89.0 °F 72.3 °F 29.99 in WNW 3.5 mph   58% 0.00 in BKN
14:04 89.2 °F 72.5 °F 29.99 in West 3.5 mph   58% 0.00 in BKN
14:09 89.2 °F 73.0 °F 29.98 in West 3.5 mph 3.5 mph 59% 0.00 in BKN
14:15 89.0 °F 72.3 °F 29.98 in WNW 3.5 mph   58% 0.00 in BKN
14:19 88.4 °F 73.2 °F 29.98 in WNW 3.5 mph   61% 0.00 in BKN
14:25 87.9 °F 72.8 °F 29.98 in WNW 3.5 mph   61% 0.00 in BKN
14:30 87.9 °F 74.2 °F 29.97 in WNW 3.5 mph   64% 0.00 in BKN
14:35 87.8 °F 71.7 °F 29.97 in NW 3.5 mph   59% 0.00 in BKN
14:40 87.9 °F 73.3 °F 29.97 in Calm   1.0 mph 62% 0.00 in BKN
14:45 87.9 °F 71.3 °F 29.97 in Calm   2.0 mph 58% 0.00 in BKN
14:50 87.5 °F 72.9 °F 29.97 in Calm   2.0 mph 62% 0.00 in BKN
14:55 87.4 °F 73.2 °F 29.97 in Calm   2.0 mph 63% 0.00 in BKN
15:00 87.4 °F 72.3 °F 29.97 in Calm   2.0 mph 61% 0.00 in BKN
15:05 87.5 °F 72.9 °F 29.97 in Calm     62% 0.00 in BKN
15:10 87.6 °F 72.0 °F 29.97 in Calm   3.0 mph 60% 0.00 in BKN
15:15 87.4 °F 70.3 °F 29.96 in Calm   3.0 mph 57% 0.00 in BKN
15:20 87.4 °F 71.8 °F 29.96 in Calm   2.0 mph 60% 0.00 in BKN
15:25 87.3 °F 69.7 °F 29.96 in SW 1.0 mph 2.0 mph 56% 0.00 in BKN
15:30 87.3 °F 70.2 °F 29.97 in Calm   5.0 mph 57% 0.00 in BKN
15:35 86.9 °F 70.9 °F 29.97 in Calm   1.0 mph 59% 0.00 in BKN
15:40 86.6 °F 72.0 °F 29.97 in Calm   3.0 mph 62% 0.00 in BKN
15:45 86.7 °F 72.6 °F 29.97 in WNW 1.0 mph 5.0 mph 63% 0.00 in BKN
15:50 86.5 °F 71.9 °F 29.96 in WSW 5.1 mph 5.1 mph 62% 0.00 in BKN
15:55 86.4 °F 72.3 °F 29.97 in Calm   5.0 mph 63% 0.00 in BKN
16:00 86.4 °F 72.8 °F 29.97 in Calm   2.0 mph 64% 0.00 in BKN
16:05 86.4 °F 73.7 °F 29.97 in Calm   1.0 mph 66% 0.00 in BKN
16:10 86.3 °F 73.6 °F 29.97 in Calm   1.0 mph 66% 0.00 in BKN
16:15 86.2 °F 74.0 °F 29.97 in Calm   2.0 mph 67% 0.00 in BKN
16:20 86.2 °F 73.0 °F 29.96 in SW 5.1 mph   65% 0.00 in BKN
16:25 86.3 °F 73.1 °F 29.96 in Calm   1.0 mph 65% 0.00 in BKN
16:30 86.3 °F 74.1 °F 29.97 in West 1.0 mph 1.0 mph 67% 0.00 in BKN
16:35 86.3 °F 73.1 °F 29.96 in Calm   1.0 mph 65% 0.00 in BKN
16:40 86.2 °F 73.0 °F 29.96 in Calm   1.0 mph 65% 0.00 in BKN
16:45 85.9 °F 72.8 °F 29.96 in Calm   3.0 mph 65% 0.00 in BKN
16:50 85.7 °F 72.6 °F 29.96 in West 5.1 mph 5.1 mph 65% 0.00 in BKN
16:55 85.7 °F 72.6 °F 29.96 in Calm   2.0 mph 65% 0.00 in BKN
17:00 85.6 °F 71.5 °F 29.96 in Calm   1.0 mph 63% 0.00 in BKN
17:05 85.4 °F 71.4 °F 29.96 in Calm   1.0 mph 63% 0.00 in BKN
17:10 85.2 °F 71.2 °F 29.95 in Calm   2.0 mph 63% 0.00 in BKN
17:15 85.0 °F 71.0 °F 29.95 in Calm     63% 0.00 in BKN
17:20 85.0 °F 70.5 °F 29.95 in Calm     62% 0.00 in BKN
17:25 85.2 °F 71.6 °F 29.95 in Calm     64% 0.00 in BKN
17:30 85.3 °F 72.2 °F 29.95 in NW 5.1 mph   65% 0.00 in BKN
17:35 85.4 °F 72.3 °F 29.95 in WNW 5.1 mph   65% 0.00 in BKN
17:40 85.4 °F 72.3 °F 29.95 in WNW 5.1 mph 5.1 mph 65% 0.00 in BKN
17:45 85.3 °F 71.7 °F 29.95 in Calm   1.0 mph 64% 0.00 in BKN
17:51 85.2 °F 71.6 °F 29.94 in SW 2.3 mph 2.3 mph 64% 0.00 in BKN
17:57 85.0 °F 71.9 °F 29.95 in WNW 3.5 mph   65% 0.00 in BKN
18:02 84.9 °F 71.8 °F 29.95 in SW 3.5 mph 3.5 mph 65% 0.00 in BKN
18:07 84.7 °F 71.6 °F 29.95 in WSW 3.5 mph 3.5 mph 65% 0.00 in BKN
18:12 84.7 °F 72.1 °F 29.95 in West 3.5 mph 3.5 mph 66% 0.00 in BKN
20:23 73.8 °F 69.0 °F 30.00 in WNW 3.1 mph   85% 0.00 in CLR
20:28 73.4 °F 69.0 °F 30.00 in WNW 3.1 mph   86% 0.00 in BKN
20:34 73.0 °F 68.9 °F 30.00 in WNW 3.1 mph   87% 0.00 in BKN
20:39 72.7 °F 68.9 °F 29.99 in WNW 3.1 mph   88% 0.00 in BKN
20:44 72.5 °F 68.7 °F 29.98 in WNW 3.1 mph   88% 0.00 in BKN
20:49 72.4 °F 69.0 °F 29.98 in NW 3.1 mph   89% 0.00 in BKN
20:54 72.0 °F 68.2 °F 29.98 in NE 3.1 mph   88% 0.00 in OVC
20:59 71.8 °F 68.4 °F 29.97 in NE 3.1 mph   89% 0.00 in OVC
21:04 71.7 °F 68.3 °F 29.97 in NE 3.1 mph   89% 0.00 in OVC
21:09 71.5 °F 68.4 °F 29.98 in NE 3.1 mph   90% 0.00 in OVC
21:14 71.4 °F 68.3 °F 29.98 in NE 3.1 mph   90% 0.00 in OVC
21:19 71.4 °F 68.3 °F 29.98 in NE 3.1 mph   90% 0.00 in OVC
21:24 71.4 °F 68.6 °F 29.98 in NE 3.1 mph   91% 0.00 in OVC
21:29 71.4 °F 68.6 °F 29.99 in NE 3.1 mph   91% 0.00 in OVC
21:34 71.5 °F 68.7 °F 29.99 in NE 3.1 mph   91% 0.00 in OVC
21:39 71.4 °F 68.6 °F 30.00 in NE 3.1 mph   91% 0.00 in OVC
21:44 71.3 °F 68.5 °F 30.00 in NE 3.1 mph   91% 0.00 in OVC
21:49 71.2 °F 68.4 °F 30.00 in NE 3.1 mph   91% 0.00 in OVC
21:54 71.3 °F 68.9 °F 30.00 in NE 3.1 mph   92% 0.00 in OVC
21:59 71.3 °F 68.5 °F 30.00 in NE 3.1 mph   91% 0.00 in OVC
22:04 71.2 °F 68.8 °F 30.00 in NE 3.1 mph   92% 0.00 in OVC
22:10 71.2 °F 68.8 °F 30.00 in NE 3.1 mph   92% 0.00 in OVC
22:15 71.1 °F 68.7 °F 30.00 in NE 3.1 mph   92% 0.00 in OVC
22:20 71.2 °F 68.8 °F 30.00 in NE 3.1 mph   92% 0.00 in OVC
22:25 71.2 °F 68.8 °F 30.00 in NE 3.1 mph   92% 0.00 in BKN
22:30 71.2 °F 68.8 °F 30.00 in NE 3.1 mph   92% 0.00 in BKN
22:35 71.1 °F 68.7 °F 30.01 in NE 3.1 mph   92% 0.00 in BKN
22:40 70.9 °F 68.5 °F 30.01 in NE 3.1 mph   92% 0.00 in BKN
22:45 70.8 °F 68.4 °F 30.01 in NE 3.1 mph   92% 0.00 in BKN
22:50 70.8 °F 68.4 °F 30.02 in NE 3.1 mph   92% 0.00 in BKN
22:55 70.7 °F 68.3 °F 30.02 in NE 3.1 mph   92% 0.00 in BKN
23:00 70.7 °F 68.3 °F 30.01 in NE 3.1 mph   92% 0.00 in BKN
23:05 70.7 °F 68.3 °F 30.02 in NE 3.1 mph   92% 0.00 in BKN
23:10 70.7 °F 68.3 °F 30.02 in NE 3.1 mph   92% 0.00 in BKN
23:15 70.7 °F 68.3 °F 30.02 in NE 3.1 mph   92% 0.00 in BKN
23:20 70.5 °F 68.1 °F 30.02 in NE 3.1 mph   92% 0.00 in SCT
23:21 70.5 °F 68.1 °F 30.02 in NE 3.1 mph   92% 0.00 in SCT
23:26 70.5 °F 68.1 °F 30.02 in NE 3.1 mph   92% 0.00 in SCT
23:31 70.5 °F 68.1 °F 30.02 in NE 3.1 mph   92% 0.00 in SCT
23:36 70.5 °F 68.1 °F 30.02 in NE 3.1 mph   92% 0.00 in SCT
23:41 70.4 °F 68.0 °F 30.02 in NE 3.1 mph   92% 0.00 in SCT
23:46 70.3 °F 67.9 °F 30.02 in NE 3.1 mph   92% 0.00 in SCT
23:51 70.2 °F 67.8 °F 30.02 in NE 3.1 mph   92% 0.00 in SCT
23:56 70.2 °F 67.8 °F 30.02 in NE 3.1 mph   92% 0.00 in SCT
Piedmont Bend
Compliments of Weather Underground - 4 mb